Regional Weather Roundup
Issued by NWS

Home | Current Version | Previous Version | Text Only | Print | Product List | Glossary Off
Versions: 1 2 3 4 5 6 7 8 9 10 11 12 13 14 15 16 17 18 19 20 21 22 23 24 25 26 27

000
ASUS45 KBOU 241307
RWRCO

WEATHER ROUNDUP FOR COLORADO
NATIONAL WEATHER SERVICE DENVER/BOULDER CO
700 AM MDT MON JUL 24 2017

NOTE: "FAIR" INDICATES FEW OR NO CLOUDS BELOW 12000 FEET WITH NO
SIGNIFICANT WEATHER AND/OR OBSTRUCTIONS TO VISIBILITY.

COZ001>005-013-030-031-241400-
...NORTHWEST COLORADO...

CITY           SKY/WX    TMP DP  RH WIND       PRES   REMARKS
CRAIG          FAIR      54  44  69 E3        30.22R
HAYDEN         FAIR      57  37  47 E10       30.24R
MEEKER         FAIR      56  45  66 S3        30.24R
RABBIT EARS PA FAIR      54  36  50 NW5       30.53R
STEAMBOAT SPGS FAIR      52  42  69 CALM      30.26S
WALDEN         FAIR      46  39  76 S6        30.36S
$$

COZ006>008-011-241400-
...WEST CENTRAL VALLEYS...

CITY           SKY/WX    TMP DP  RH WIND       PRES   REMARKS
GRAND JUNCTION FAIR      68  49  50 E7        30.11R
MONTROSE       FAIR      63  49  60 VRB5      30.23R
EAGLE          CLEAR     54  45  71 E3        30.30R
RIFLE          FAIR      62  46  55 SE5       30.18R
DELTA          FAIR      66  47  49 E5        30.19R
NUCLA          FAIR      61  45  55 E8        30.27R
$$

COZ017>023-064>068-241400-
...SOUTHWEST COLORADO...

CITY           SKY/WX    TMP DP  RH WIND       PRES   REMARKS
DURANGO        MOCLDY    59  54  83 S3        30.29S
CORTEZ         CLOUDY    66  57  72 CALM      30.24R
PAGOSA SPRINGS FAIR      59  49  68 CALM      30.38S
TELLURIDE      CLOUDY    57  46  65 CALM      30.47R
WOLF CREEK PAS NOT AVBL
$$

COZ009-010-012-014-032>034-037-058>063-241400-
...CENTRAL COLORADO...

CITY           SKY/WX    TMP DP  RH WIND       PRES   REMARKS
ASPEN          FAIR      51  43  74 S3        30.34R
BUENA VISTA    FAIR      52  46  78 NW3       30.38S
COPPER MTN     FAIR      54  34  47 W7        30.65R
BERTHOUD PASS  PTSUNNY   45  32  61 NW17      30.67R
COTTONWOOD PAS FAIR      57  41  54 E9        30.50R
GUNNISON       FAIR      51  45  79 NE6       30.40R
KREMMLING      FAIR      54  45  71 CALM      30.35R
LEADVILLE      FAIR      43  38  82 CALM      30.49R
MONARCH PASS   FAIR      46  37  71 SW17      30.74S
SALIDA         FAIR      56  49  75 NW3       30.42S
SUNLIGHT       FAIR      50  37  62 S7G17     30.57S
WILKERSON PASS FAIR      46  41  81 SW8       30.61R
$$

COZ069>075-241400-
...SAN LUIS VALLEY/SANGRE DE CRISTO MOUNTAINS...

CITY           SKY/WX    TMP DP  RH WIND       PRES   REMARKS
ALAMOSA        FAIR      52  50  93 CALM      30.34S
DEL NORTE      FAIR      55  45  69 CALM      30.38S
LA VETA PASS   NOT AVBL
SAGUACHE         N/A    N/A N/A N/A MISG        N/A
$$

COZ035-036-038>040-241400-
...NORTHERN COLORADO FRONT RANGE...

CITY           SKY/WX    TMP DP  RH WIND       PRES   REMARKS
DENVER INTL AP FAIR      72  53  51 S16G23    30.09R
DMNS CITY PARK   N/A     71  50  47 SE8G14    30.10R
AURORA         MOSUNNY   69  55  59 S20G26    30.11R
FRONT RANGE AP FAIR      72  54  53 S16G26    30.11S
ERIE MUNI ARPT FAIR      61  52  72 CALM      30.09R
BOULDER MUN AP FAIR      63  46  55 S3        30.09R
CENTENNIAL     FAIR      70  53  54 S10       30.14R
BROOMFIELD     FAIR      66  46  48 NW9       30.12R
FORT COLLINS   FAIR      63  53  70 N7        30.08R
LONGMONT       FAIR      62  53  71 CALM      30.10R
$$

COZ041-046-047-076>085-087-088-241400-
...PIKES PEAK/PALMER DIVIDE AND SOUTHERN FOOTHILLS...

CITY           SKY/WX    TMP DP  RH WIND       PRES   REMARKS
COLO. SPRINGS  FAIR      64  57  78 E6        30.22S
A. F. ACADEMY  FAIR      56  54  93 N7        30.23S
SCHRIEVER AFB  FAIR      61  55  80 NE5       30.22S
CHEYENNE MTN   FAIR      64  53  69 NE3       30.20F
ELLICOTT       FAIR     N/A N/A N/A S6        30.20S
FALCON           N/A     62  56  80 CALM      30.26S
FORT CARSON    FAIR      62  56  83 N7        30.18S
LIMON          FAIR      64  60  87 S6        30.15S
MONUMENT HILL  FAIR      61  54  77 S13       30.25S
CANON CITY     SUNNY     66  55  68 W10       30.16S
WALSENBURG     FAIR      66  50  55 W3        30.20F
TRINIDAD       FAIR      64  50  60 W10       30.19S
$$

COZ042>045-048>051-090-091-241400-
...NORTHEAST COLORADO...

CITY           SKY/WX    TMP DP  RH WIND       PRES   REMARKS
GREELEY ARPT   FAIR      65  58  78 N3        30.06R
AKRON          FAIR      71  59  65 S16G23    30.07F
BURLINGTON     FAIR      70  63  78 S12       30.11R
WRAY           NOT AVBL
YUMA           FAIR      66  54  63 S8        30.07R
STERLING       FAIR      70  63  78 S3        30.02S
HOLYOKE        FAIR      66  61  82 S6        30.05S
FORT MORGAN    FAIR      70  57  61 S7        30.06S
$$

COZ086-089-092>099-241400-
...SOUTHEAST COLORADO...

CITY           SKY/WX    TMP DP  RH WIND       PRES   REMARKS
PUEBLO         FAIR      64  54  69 SW3       30.12S
LA JUNTA       FAIR      68  62  81 CALM      30.09F
LAMAR          FAIR      72  62  71 CALM      30.06F
SPRINGFIELD      N/A     65  62  90 SW5       30.12F
$$




USA.gov is the U.S. government's official web portal to all federal, state and local government web resources and services.